Indianapolis, IN

12:05 AM EST on December 14, 2019 (GMT -0500)
Indianapolis International

Weather History for KIND - November, 2019

Change the Weather History Date:

Friday, November 22, 2019

  Actual Average Record
Temperature  
Mean Temperature 37 °F 41 °F  
Max Temperature 43 °F 49 °F 74 °F (1900)
Min Temperature 31 °F 33 °F -5 °F (1880)
Degree Days  
Heating Degree Days 28 24  
Month to date heating degree days 622 429  
Since 1 July heating degree days 917 830  
Cooling Degree Days 0 0  
Month to date cooling degree days 0 0  
Year to date cooling degree days 1344 1065  
Moisture  
Dew Point 32 °F    
Average Humidity 76    
Maximum Humidity 93    
Minimum Humidity 57    
Precipitation  
Precipitation T in 0.13 in 1.68 in (1992)
Month to date precipitation 0.45 2.72  
Year to date precipitation 41.95 38.29  
Snow  
Snow 0.00 in 0.00 in 1.00 in (1941)
Month to date snowfall 2.8 0.3  
Since 1 July snowfall 2.8 0.7  
Since 1 September snowfall 2.8 0.7  
Snow Depth 0.00 in    
Sea Level Pressure  
Sea Level Pressure 30.11 in    
Wind  
Wind Speed 9 mph ()    
Max Wind Speed 20 mph    
Max Gust Speed 25 mph    
Visibility 9.9 miles    
Events Rain    
T = Trace of Precipitation, MM = Missing Value Source: Averaged Metar Reports

Daily Weather History Graph

Daily Weather History Graph

Search for Another Location

Airport or City:

Astronomy

Nov. 22, 2019 Rise Set
Actual Time 7:37 AM EST 5:24 PM EST
Civil Twilight 7:07 AM EST 5:54 PM EST
Nautical Twilight 6:34 AM EST 6:27 PM EST
Astronomical Twilight 6:02 AM EST 6:59 PM EST
Moon 2:43 AM EST (11/22) 3:24 PM EST (11/22)
Length of Visible Light 10h 46m
Length of Day
9h 47m
Waning Crescent, 20% of the Moon is Illuminated
Nov 22
Waning Crescent
Nov 26
New
Dec 4
First Quarter
Dec 12
Full
Dec 18
Last Quarter

Hourly Weather History & Observations

Time (EST) Temp. Windchill Dew Point Humidity Pressure Visibility Wind Dir Wind Speed Gust Speed Precip Events Conditions
12:32 AM 43.0 °F 36.0 °F 41.0 °F 93% 30.00 in 10.0 mi WNW 13.8 mph - 0.00 in   Overcast
12:54 AM 42.1 °F 35.7 °F 39.9 °F 92% 29.99 in 8.0 mi WNW 11.5 mph - 0.00 in Rain Light Rain
1:25 AM 42.1 °F 36.1 °F 39.0 °F 89% 30.00 in 10.0 mi WNW 10.4 mph - 0.00 in   Overcast
1:54 AM 42.1 °F 35.2 °F 37.9 °F 85% 30.02 in 10.0 mi WNW 12.7 mph - 0.00 in   Overcast
2:54 AM 41.0 °F 33.5 °F 37.0 °F 86% 30.02 in 10.0 mi NW 13.8 mph - 0.00 in Rain Light Rain
4:54 AM 39.9 °F 32.5 °F 35.1 °F 83% 30.06 in 10.0 mi NW 12.7 mph - N/A   Overcast
5:54 AM 39.0 °F 32.3 °F 34.0 °F 82% 30.07 in 10.0 mi NW 10.4 mph - N/A   Overcast
6:54 AM 39.0 °F 33.4 °F 34.0 °F 82% 30.09 in 10.0 mi NW 8.1 mph - N/A   Overcast
7:54 AM 37.9 °F 32.7 °F 33.1 °F 83% 30.12 in 10.0 mi NW 6.9 mph - N/A   Overcast
8:54 AM 39.0 °F 32.3 °F 33.1 °F 79% 30.15 in 10.0 mi NW 10.4 mph - N/A   Mostly Cloudy
9:54 AM 39.0 °F 31.4 °F 32.0 °F 76% 30.17 in 10.0 mi North 12.7 mph - N/A   Mostly Cloudy
10:52 AM 39.2 °F 32.5 °F 30.2 °F 70% 30.16 in 10.0 mi North 10.4 mph - N/A   Mostly Cloudy
10:54 AM 39.9 °F 32.5 °F 30.0 °F 68% 30.17 in 10.0 mi NNW 12.7 mph - N/A   Mostly Cloudy
11:54 AM 41.0 °F 34.7 °F 30.0 °F 65% 30.16 in 10.0 mi NNW 10.4 mph - N/A   Scattered Clouds
12:54 PM 39.9 °F 33.9 °F 28.9 °F 65% 30.17 in 10.0 mi North 9.2 mph - N/A   Scattered Clouds
1:54 PM 42.1 °F 37.7 °F 28.0 °F 58% 30.15 in 10.0 mi NNE 6.9 mph - N/A   Mostly Cloudy
2:54 PM 42.1 °F 37.1 °F 28.0 °F 58% 30.13 in 10.0 mi North 8.1 mph - N/A   Mostly Cloudy
3:54 PM 43.0 °F 37.2 °F 28.9 °F 58% 30.12 in 10.0 mi NNW 10.4 mph - N/A   Mostly Cloudy
4:54 PM 41.0 °F 36.4 °F 28.0 °F 60% 30.14 in 10.0 mi North 6.9 mph - N/A   Mostly Cloudy
5:54 PM 37.0 °F 32.4 °F 28.0 °F 70% 30.14 in 10.0 mi North 5.8 mph - N/A   Scattered Clouds
6:54 PM 35.1 °F 29.3 °F 27.0 °F 72% 30.13 in 10.0 mi NE 6.9 mph - N/A   Partly Cloudy
7:54 PM 34.0 °F 27.2 °F 28.0 °F 79% 30.13 in 10.0 mi NE 8.1 mph - N/A   Partly Cloudy
8:54 PM 34.0 °F - 28.0 °F 79% 30.13 in 10.0 mi Calm Calm - N/A   Clear
9:54 PM 33.1 °F 28.7 °F 27.0 °F 78% 30.12 in 10.0 mi East 4.6 mph - N/A   Clear
10:54 PM 32.0 °F 25.6 °F 27.0 °F 82% 30.10 in 10.0 mi ENE 6.9 mph - N/A   Scattered Clouds